Pittsburgh Allegheny Co., PA

1:22 AM EDT on June 28, 2017 (GMT -0400)
Allegheny County

Weather History for KAGC - January, 2013

Change the Weather History Date:

Tuesday, January 1, 2013

  Actual Average Record
Temperature  
Mean Temperature 28 °F -  
Max Temperature 32 °F 43 °F 59 °F (1993)
Min Temperature 21 °F 22 °F 10 °F (1998)
Degree Days  
Heating Degree Days 37    
Moisture  
Dew Point 27 °F    
Average Humidity 89    
Maximum Humidity 100    
Minimum Humidity 77    
Precipitation  
Precipitation 0.00 in - - ()
Sea Level Pressure  
Sea Level Pressure 30.01 in    
Wind  
Wind Speed 8 mph (West)    
Max Wind Speed 10 mph    
Max Gust Speed -    
Visibility 6 miles    
Events Snow    
Averages and records for this station are not official NWS values.
T = Trace of Precipitation, MM = Missing Value Source: NWS Daily Summary

Daily Weather History Graph

Daily Weather History Graph

Search for Another Location

Airport or City:

Trip Planner

Search our weather history database for the weather conditions in past years. The results will help you decide how hot, cold, wet, or windy it might be!

Date:

Astronomy

Jan. 01, 2013 Rise Set
Actual Time 7:42 AM EST 5:04 PM EST
Civil Twilight 7:12 AM EST 5:35 PM EST
Nautical Twilight 6:37 AM EST 6:09 PM EST
Astronomical Twilight 6:04 AM EST 6:42 PM EST
Moon 9:34 PM EST (1/1) 9:53 AM EST (1/1)
Length of Visible Light 10h 22m
Length of Day
9h 21m
Waning Gibbous, 83% of the Moon is Illuminated
Jan 1
Waning Gibbous
Jan 4
Last Quarter
Jan 11
New
Jan 18
First Quarter
Jan 26
Full

Hourly Weather History & Observations

Time (EST) Temp. Windchill Dew Point Humidity Pressure Visibility Wind Dir Wind Speed Gust Speed Precip Events Conditions
12:53 AM 32.0 °F 23.6 °F 28.0 °F 85% 30.04 in 7.0 mi WSW 10.4 mph - N/A   Overcast
1:53 AM 32.0 °F 25.6 °F 28.9 °F 88% 30.04 in 7.0 mi WSW 6.9 mph - N/A   Overcast
2:53 AM 32.0 °F 24.2 °F 28.9 °F 88% 30.04 in 8.0 mi SW 9.2 mph - N/A   Overcast
3:35 AM 30.2 °F 22.6 °F 28.4 °F 93% 29.98 in 2.5 mi SW 8.1 mph - 0.00 in Snow Light Snow
3:48 AM 30.2 °F 22.6 °F 30.2 °F 100% 29.97 in 2.0 mi SSW 8.1 mph - 0.00 in Snow Light Snow
3:53 AM 30.9 °F 23.5 °F 30.0 °F 96% 30.04 in 1.8 mi SSW 8.1 mph - 0.00 in Snow Light Snow
4:12 AM 30.2 °F 24.3 °F 30.2 °F 100% 29.97 in 1.5 mi SW 5.8 mph - 0.00 in Snow Light Snow
4:27 AM 30.2 °F 23.4 °F 30.2 °F 100% 29.97 in 2.0 mi SW 6.9 mph - 0.00 in Snow Light Snow
4:53 AM 30.9 °F 22.8 °F 30.0 °F 96% 30.03 in 2.5 mi SW 9.2 mph - 0.00 in Snow Light Snow
5:06 AM 30.2 °F 22.6 °F 30.2 °F 100% 29.96 in 3.0 mi SSW 8.1 mph - 0.00 in Snow Light Snow
5:53 AM 30.9 °F 23.5 °F 30.0 °F 96% 30.02 in 3.0 mi WSW 8.1 mph - 0.00 in Snow Light Snow
6:02 AM 30.2 °F 22.6 °F 30.2 °F 100% 29.97 in 2.0 mi SW 8.1 mph - 0.00 in Snow Light Snow
6:32 AM 30.2 °F 22.6 °F 28.4 °F 93% 29.97 in 3.0 mi SW 8.1 mph - 0.00 in Snow Light Snow
6:43 AM 30.2 °F 23.4 °F 28.4 °F 93% 29.96 in 2.0 mi SW 6.9 mph - 0.00 in Snow Light Snow
6:53 AM 30.9 °F 24.3 °F 30.0 °F 96% 30.02 in 3.0 mi SW 6.9 mph - 0.00 in Snow Light Snow
7:36 AM 30.2 °F 23.4 °F 30.2 °F 100% 29.97 in 2.5 mi SW 6.9 mph - 0.00 in   Overcast
7:46 AM 30.2 °F 22.6 °F 28.4 °F 93% 29.98 in 4.0 mi SW 8.1 mph - 0.00 in   Overcast
7:53 AM 30.9 °F 23.5 °F 30.0 °F 96% 30.03 in 2.0 mi SW 8.1 mph - 0.00 in   Overcast
8:00 AM 30.2 °F 21.9 °F 28.4 °F 93% 29.98 in 4.0 mi SW 9.2 mph - N/A   Overcast
8:14 AM 30.2 °F 21.9 °F 28.4 °F 93% 29.98 in 2.5 mi WSW 9.2 mph - N/A   Overcast
8:24 AM 30.2 °F 23.4 °F 28.4 °F 93% 29.98 in 4.0 mi SW 6.9 mph - N/A   Overcast
8:53 AM 30.9 °F 22.8 °F 28.9 °F 92% 30.04 in 4.0 mi WSW 9.2 mph - N/A   Overcast
9:53 AM 30.9 °F 23.5 °F 28.9 °F 92% 30.04 in 5.0 mi WSW 8.1 mph - 0.00 in   Overcast
10:53 AM 32.0 °F 25.6 °F 28.9 °F 88% 30.05 in 9.0 mi Variable 6.9 mph - N/A   Overcast
11:53 AM 32.0 °F 28.7 °F 27.0 °F 82% 30.01 in 7.0 mi NW 3.5 mph - N/A   Overcast
12:07 PM 32.0 °F 27.5 °F 26.6 °F 80% 29.95 in 7.0 mi Variable 4.6 mph - N/A   Overcast
12:35 PM 32.0 °F 26.4 °F 28.4 °F 87% 29.95 in 7.0 mi Variable 5.8 mph - N/A   Overcast
12:53 PM 32.0 °F 25.6 °F 27.0 °F 82% 30.00 in 7.0 mi NW 6.9 mph - N/A   Overcast
1:53 PM 30.9 °F 23.5 °F 27.0 °F 85% 29.99 in 5.0 mi NW 8.1 mph - N/A   Overcast
2:53 PM 30.0 °F 22.4 °F 26.1 °F 85% 29.99 in 4.0 mi NNW 8.1 mph - N/A   Overcast
2:59 PM 30.2 °F 21.3 °F 26.6 °F 86% 29.94 in 4.0 mi NNW 10.4 mph - N/A   Overcast
3:01 PM 30.2 °F 21.9 °F 26.6 °F 86% 29.94 in 4.0 mi NNW 9.2 mph - N/A   Overcast
3:14 PM 30.2 °F 22.6 °F 26.6 °F 86% 29.96 in 4.0 mi NNW 8.1 mph - N/A   Overcast
3:31 PM 30.2 °F 22.6 °F 26.6 °F 86% 29.95 in 5.0 mi NNW 8.1 mph - N/A   Overcast
3:53 PM 30.0 °F 23.2 °F 25.0 °F 82% 30.02 in 7.0 mi NW 6.9 mph - N/A   Overcast
4:39 PM 28.4 °F 19.1 °F 24.8 °F 86% 29.99 in 6.0 mi NNW 10.4 mph - N/A   Overcast
4:53 PM 28.0 °F 19.3 °F 24.1 °F 85% 30.04 in 6.0 mi NNW 9.2 mph - N/A   Overcast
5:12 PM 28.4 °F 21.2 °F 24.8 °F 86% 30.00 in 8.0 mi NNW 6.9 mph - N/A   Overcast
5:33 PM 28.4 °F 19.7 °F 24.8 °F 86% 30.00 in 9.0 mi NNW 9.2 mph - N/A   Overcast
5:53 PM 27.0 °F 20.5 °F 23.0 °F 85% 30.06 in 10.0 mi NNW 5.8 mph - N/A   Overcast
6:35 PM 26.6 °F 18.2 °F 21.2 °F 80% 29.99 in 10.0 mi North 8.1 mph - N/A   Overcast
6:53 PM 27.0 °F 19.5 °F 21.0 °F 78% 30.06 in 10.0 mi NNW 6.9 mph - N/A   Overcast
7:53 PM 26.1 °F 20.5 °F 19.9 °F 78% 30.07 in 10.0 mi NNW 4.6 mph - N/A   Overcast
8:53 PM 25.0 °F 17.1 °F 19.0 °F 78% 30.08 in 10.0 mi NNW 6.9 mph - N/A   Overcast
9:53 PM 24.1 °F 15.2 °F 18.0 °F 77% 30.08 in 10.0 mi NNW 8.1 mph - N/A   Overcast
10:53 PM 24.1 °F 15.2 °F 18.0 °F 77% 30.09 in 10.0 mi North 8.1 mph - N/A   Overcast
11:53 PM 21.9 °F 13.4 °F 16.0 °F 78% 30.10 in 10.0 mi NNW 6.9 mph - N/A   Overcast